Home > Weather > Albany > Past weeks

Flag for USA Past Weather in Albany, New York, USA — Yesterday and Last 2 Weeks

Now
70 °F

Partly cloudy.


Feels Like: 76 °F
Forecast: 60 / 81 °F
Wind: No wind

Location: Albany County Airport

Current Time: Jun 30, 2016 at 10:55:24 PM

Latest Report: Jun 30, 2016 at 9:51 PM


Visibility: 10 mi

Pressure: 30.00 "Hg

Humidity: 57%

Dew Point: 54 °F

Location of AlbanyLocation

Past Weather in Albany — Graph

°F

Albany Temperature Yesterday

Maximum temperature yesterday: 80 °F (at 2:51 PM)
Minimum temperature yesterday: 61 °F (at 4:51 AM)
Average temperature yesterday: 71 °F

High & Low Weather Summary for the Past Weeks

 TemperatureHumidityPressure
High90 °F (Jun 19, 4:51 PM)97% (Jun 29, 4:51 AM)30.30 "Hg (Jun 29, 4:51 AM)
Low50 °F (Jun 23, 4:51 AM)22% (Jun 23, 4:51 PM)29.71 "Hg (Jun 16, 5:51 PM)
Average72 °F55%29.98 "Hg
* Reported Jun 15 9:51 PM — Jun 30 9:51 PM, Albany, Weather by CustomWeather, © 2016

Note: Actual official high and low records may vary slightly from our data, if they occured in-between our weather recording intervals... More about our weather records

Advertising

Albany Weather History for the Previous 24 Hours

Scroll right to see more
 ConditionsComfort  
Time TempWeatherWind HumidityBarometerVisibility
9:51 PM
Thu, Jun 30
70 °FPartly cloudy.No wind57%30.00 "Hg10 mi
8:51 PM73 °FPartly sunny.No wind50%29.98 "Hg10 mi
7:51 PM78 °FPartly sunny.5 mph39%29.98 "Hg10 mi
6:51 PM81 °FScattered clouds.10 mph34%29.96 "Hg10 mi
5:51 PM83 °FScattered clouds.10 mph33%29.96 "Hg10 mi
4:51 PM83 °FPassing clouds.9 mph32%29.97 "Hg10 mi
3:51 PM82 °FPartly sunny.9 mph34%29.98 "Hg10 mi
2:51 PM81 °FPartly sunny.No wind30%29.98 "Hg10 mi
1:51 PM82 °FPartly sunny.12 mph32%29.99 "Hg10 mi
12:51 PM81 °FScattered clouds.9 mph34%30.00 "Hg10 mi
11:51 AM79 °FScattered clouds.7 mph42%30.01 "Hg10 mi
10:51 AM77 °FPassing clouds.5 mph50%30.01 "Hg10 mi
9:51 AM73 °FPassing clouds.No wind59%30.01 "Hg10 mi
8:51 AM71 °FPassing clouds.3 mph61%30.01 "Hg10 mi
7:51 AM67 °FSunny.3 mph71%30.01 "Hg10 mi
6:51 AM64 °FSunny.No wind75%30.00 "Hg10 mi
5:51 AM59 °FPassing clouds.No wind87%29.99 "Hg10 mi
4:51 AM60 °FPassing clouds.No wind83%29.98 "Hg10 mi
3:51 AM62 °FPassing clouds.3 mph80%29.96 "Hg10 mi
2:51 AM64 °FPassing clouds.3 mph75%29.96 "Hg10 mi
1:51 AM63 °FPassing clouds.5 mph81%29.96 "Hg10 mi
12:51 AM64 °FPassing clouds.5 mph75%29.96 "Hg10 mi
11:51 PM
Wed, Jun 29
68 °FPassing clouds.No wind65%29.95 "Hg10 mi
10:51 PM68 °FPassing clouds.7 mph68%29.93 "Hg10 mi
Weather by CustomWeather, © 2016

See weather overviewHow to use our weather pages